SCP
-0 -0 -0 -0 -0 -0 -0 -0 -0 -0 -0 -0 -0 -0 -0 -0 -0 -0 -0 -0 0 0 0 0 0 0 0 0 0 0 0 0 0 0 0 0 0 0 0 0 0 0 0 0 0 0 0
0 0 -0 -0 -0 -0 -0 -0 -0 -0 -0 -0 -0 -0 -0 -0 -0 -0 0 0 0 0 0 0 0 0 0 0 0 0 0 0 0 0 0 0 0 0 0 0 0 0 0 0 0 0 0
-0 -0 -0 -0 -0 -0 -0 -0 -0 -0 -0 -0 -0 -0 -0 -0 -0 0 0 0 -0 0 -0 0 0 0 0 0 0 0 0 0 0 0 0 0 0 0 0 0 0 0 0 0 0 0 0
-0 -0 0 0 -0 -0 -0 0 0 0 -0 -0 -0 -0 -0 -0 -0 -0 0 -0 0 0 0 -0 0 0 0 0 0 0 0 0 0 0 0 0 0 0 0 0 0 0 0 0 0 0 0
-0 -0 0 0 0 0 0 0 0 0 0 -0 -0 -0 -0 -0 -0 -0 -0 -0 0 0 0 0 0 0 0 -0 0 0 0 0 0 0 0 0 0 0 0 0 0 0 0 0 0 0 0
-0 -0 -0 0 0 0 0 0 0 0 -0 -0 -0 -0 0 -0 -0 -0 0 0 0 0 -0 0 0 0 0 0 0 0 0 0 0 0 0 0 0 0 0 0 0 0 0 0 0 0 0
-0 -0 -0 -0 0 0 -0 -0 0 0 0 -0 -0 0 0 0 -0 -0 0 0 0 0 0 0 0 0 0 0 0 0 0 0 0 0 0 0 0 0 0 0 0 0 0 0 0 0 0
0 -0 -0 -0 -0 -0 -0 0 0 -0 0 0 0 0 0 0 -0 -0 -0 -0 0 0 0 0 0 0 0 0 0 0 0 0 0 0 0 0 0 0 0 0 0 0 0 0 0 0 0
0 0 -0 -0 -0 -0 -0 -0 0 0 0 0 0 0 0 0 0 0 -0 -0 -0 0 0 0 0 0 0 0 0 0 0 0 0 0 0 0 0 0 0 0 0 0 0 0 0 0 0
0 0 0 0 0 0 0 0 0 0 0 0 0 0 0 0 0 0 0 0 -0 0 0 0 0 0 0 0 0 0 0 0 0 0 0 0 0 0 0 0 0 0 0 0 0 0 0
0 0 0 0 0 0 0 0 0 0 0 0 0 0 0 0 0 0 0 0 0 0 0 0 0 0 0 0 0 0 0 0 0 0 0 0 0 0 0 0 0 0 0 0 0 0 0
0 0 0 0 0 0 -0 0 0 0 0 0 0 0 0 0 0 0 0 0 0 0 0 0 0 0 0 0 0 0 0 0 0 0 0 0 0 0 0 0 0 0 0 0 0 0 0
0 0 0 0 0 0 -0 -0 -0 0 0 0 0 -0 0 -0 0 0 0 0 0 0 0 0 0 0 0 0 0 0 0 0 0 0 0 0 0 0 0 0 0 0 0 0 0 0 0
0 0 0 0 0 0 0 -0 -0 0 0 0 0 0 0 0 0 0 0 0 0 0 0 0 0 0 0 0 0 0 0 0 0 0 0 0 0 0 0 0 0 0 0 0 0 0 0
0 0 0 0 0 0 0 0 0 0 0 0 0 0 0 0 0 0 0 0 0 0 0 0 0 0 0 0 0 0 0 0 0 0 0 0 0 0 0 0 0 0 0 0 0 0 0
0 0 0 0 0 0 0 0 0 0 0 0 0 0 0 0 0 0 0 0 0 0 0 0 0 0 0 0 0 0 0 0 0 0 0 0 0 0 0 0 0 0 0 0 0 0 0
0 0 0 0 0 0 0 0 0 0 0 0 0 0 0 0 0 0 0 0 0 0 0 0 0 0 0 0 0 0 0 0 0 0 0 0 0 0 0 0 0 0 0 0 0 0 0
0 0 0 0 0 0 0 0 0 0 0 0 0 0 0 0 0 0 0 0 0 0 0 0 0 0 0 0 0 0 0 0 0 0 0 0 0 0 0 0 0 0 0 0 0 0 0
0 0 0 0 0 0 0 0 0 0 0 0 0 0 0 0 0 0 0 0 0 0 0 0 0 0 0 0 0 0 0 0 0 0 0 0 0 0 0 0 0 0 0 0 0 0 0
0 0 0 0 0 0 0 0 0 0 0 0 0 0 0 0 0 0 0 0 0 0 0 0 0 0 0 0 0 0 0 0 0 0 0 0 0 0 0 0 0 0 0 0 0 0 0
0 0 0 0 0 0 0 0 0 0 0 0 0 0 0 0 0 0 0 0 0 0 0 0 0 0 0 0 0 0 0 0 0 0 0 0 0 0 0 0 0 0 0 0 0 0 0
0 0 0 0 0 0 0 0 0 0 0 0 0 0 0 0 0 0 0 0 0 0 0 0 0 0 0 0 0 0 0 0 0 0 0 0 0 0 0 0 0 0 0 0 0 0 0
0 0 0 0 0 0 0 0 0 0 0 0 0 0 0 0 0 0 0 0 0 0 0 0 0 0 0 0 0 0 0 0 0 0 0 0 0 0 0 0 0 0 0 0 0 0 0
0 0 0 0 0 0 0 0 0 0 0 0 0 0 0 0 0 0 0 0 0 0 0 0 0 0 0 0 0 0 0 0 0 0 0 0 0 0 0 0 0 0 0 0 0 0 0
0 0 0 0 0 0 0 0 0 0 0 0 0 0 0 0 0 0 0 0 0 0 0 0 0 0 0 0 0 0 0 0 0 0 0 0 0 0 0 0 0 0 0 0 0 0 0
0 0 0 0 0 0 0 0 0 0 0 0 0 0 0 0 0 0 0 0 0 0 0 0 0 0 0 0 0 0 0 0 0 0 0 0 0 0 0 0 0 0 0 0 0 0 0
0 0 0 0 0 0 0 0 0 0 0 0 0 0 0 0 0 0 0 0 0 0 0 0 0 0 0 0 0 0 0 0 0 0 0 0 0 0 0 0 0 0 0 0 0 0 -0
0 0 0 0 0 0 0 0 0 0 0 0 0 0 0 0 0 0 0 0 0 0 0 0 0 0 0 0 0 0 0 0 0 0 0 0 0 0 0 0 0 0 0 0 0 0 0
0 0 0 0 0 0 0 0 0 0 0 0 0 0 0 0 0 0 0 0 0 0 0 0 0 0 0 0 0 0 0 0 0 0 0 0 0 0 0 0 -0 -0 -0 0 0 0 0
Wind_Speed_500mb
13 14 15 17 17 19 22 26 32 32 29 28 30 33 35 36 38 38 41 42 36 27 19 16 9 8 18 14 11 9 9 7 8 9 12 13 16 11 6 9 15 2 8 13 19 35 26
11 13 14 16 16 18 22 27 33 34 31 31 33 36 38 38 41 40 42 40 30 21 24 15 12 14 11 13 12 9 8 9 8 11 15 16 11 11 4 4 3 11 19 28 18 27 11
10 11 13 15 16 19 23 27 31 33 33 33 37 40 42 41 41 39 41 37 25 13 23 16 18 20 26 16 15 10 9 12 14 15 14 14 13 10 11 9 14 12 10 15 9 16 7
11 12 13 14 17 20 23 27 32 31 33 35 38 41 42 40 40 40 42 26 20 15 15 14 13 10 15 16 15 8 11 10 12 13 13 12 14 8 6 14 12 9 8 11 8 18 11
14 13 14 15 17 20 23 27 30 32 33 36 39 39 43 41 38 42 41 17 29 21 16 13 11 10 10 12 17 19 17 14 10 13 10 11 10 10 9 7 10 14 5 6 16 10 10
17 16 15 16 18 20 22 25 31 34 31 35 36 37 41 41 39 44 41 12 5 35 9 13 17 12 17 17 14 15 16 14 13 12 5 13 11 7 9 12 5 10 9 7 10 12 14
18 17 17 15 16 20 23 25 28 32 33 35 35 37 37 43 37 47 44 4 6 6 46 21 15 11 17 14 21 20 22 13 15 16 9 12 14 7 11 4 8 8 7 12 10 11 16
17 18 20 23 26 27 28 31 35 36 37 36 36 35 33 37 31 44 43 34 27 9 6 24 23 18 22 19 11 22 21 13 13 6 10 13 8 5 10 7 5 6 8 12 15 13 13
17 19 21 22 25 29 33 35 36 35 35 34 34 35 34 31 20 38 45 40 21 9 5 11 17 15 12 16 13 23 27 12 13 9 8 2 2 10 7 7 12 6 6 9 13 12 10
17 18 21 24 26 29 34 35 35 35 35 35 35 35 35 31 14 39 38 37 15 7 8 16 13 12 15 9 9 21 22 15 11 9 10 3 7 10 10 7 7 5 9 9 18 18 9
16 19 23 26 28 31 33 34 34 34 33 33 32 33 33 31 21 38 37 32 11 5 7 10 10 12 17 16 14 27 25 11 6 8 6 7 14 13 12 3 7 8 15 13 13 12 4
15 20 24 27 29 30 31 31 32 32 32 31 31 31 29 26 24 31 32 20 7 10 4 6 13 13 12 25 15 26 21 23 7 7 8 5 11 10 11 4 7 15 11 12 9 2 3
15 19 23 26 27 27 28 31 32 32 32 31 29 28 28 30 28 29 33 11 10 10 9 13 8 12 8 13 14 18 9 17 10 14 13 13 3 2 11 8 12 15 17 11 11 7 8
16 20 22 25 26 27 30 31 32 32 31 30 28 25 24 23 23 25 25 9 9 4 7 7 8 3 10 15 7 16 6 9 13 11 5 7 10 7 11 5 6 4 7 7 11 6 22
16 19 21 25 26 29 32 32 33 30 27 27 26 22 20 20 18 22 9 11 4 2 6 11 4 10 8 9 12 13 9 4 8 12 7 11 9 6 8 8 5 8 5 4 9 10 6
17 19 21 24 28 32 33 33 29 27 25 24 24 18 16 18 20 14 10 10 6 3 7 4 4 7 8 12 10 11 5 10 6 17 5 4 13 5 9 3 6 10 6 5 2 7 10
19 21 24 26 31 34 35 30 25 26 25 22 19 10 15 22 11 13 8 5 8 11 9 9 2 5 4 4 3 3 4 7 12 11 11 5 5 10 4 4 9 7 6 5 2 1 6
22 24 27 27 32 34 32 25 23 24 22 18 12 6 24 13 11 8 5 4 4 10 17 13 8 6 4 6 5 3 4 6 12 13 5 5 3 9 17 15 8 9 7 8 5 13 8
27 30 30 31 30 29 25 24 24 22 20 16 6 8 17 8 7 3 5 8 11 12 11 10 6 9 7 3 7 5 5 11 22 10 5 8 5 11 16 9 8 7 2 5 5 2 31
29 30 32 31 26 22 23 23 22 19 15 11 6 6 16 25 17 9 6 4 6 11 8 10 7 10 9 8 10 6 6 3 34 20 36 17 8 16 21 15 2 15 16 13 12 14 25
38 32 29 25 22 19 18 19 17 14 8 6 7 6 6 5 12 12 8 5 5 6 6 7 7 9 6 5 6 6 2 11 13 24 4 5 8 8 13 16 12 29 39 39 27 37 17
47 38 32 24 18 17 18 18 14 7 2 3 4 6 14 10 6 7 8 2 5 2 3 5 7 4 4 4 8 10 4 4 12 10 6 3 11 6 41 29 25 35 38 39 38 33 26
47 34 26 21 18 17 15 12 8 6 6 1 9 13 7 4 4 6 4 8 6 4 7 3 4 2 3 4 12 26 33 36 38 8 4 8 7 2 12 5 8 14 19 11 8 10 11
49 37 28 24 18 15 10 6 5 3 5 6 14 13 6 4 3 4 6 6 5 4 0 5 5 4 1 20 32 32 36 39 27 31 29 8 2 6 8 5 4 13 11 13 14 21 12
56 42 31 22 16 10 4 1 3 5 7 9 15 8 7 6 7 6 10 9 8 5 4 4 4 4 12 14 7 10 8 12 4 9 12 16 6 7 6 4 13 14 14 15 12 14 15
56 44 31 20 13 11 8 9 10 12 14 10 12 11 9 20 8 11 11 8 6 3 7 2 6 8 9 9 8 4 5 6 8 14 10 9 2 3 10 13 10 2 20 59 14 7 42
49 40 29 19 16 13 14 14 12 12 10 10 12 12 6 12 16 13 4 7 11 8 4 4 5 5 7 5 5 2 6 3 5 4 8 8 9 7 10 8 13 4 49 47 1 11 70
49 37 28 24 21 20 17 15 11 7 7 9 16 14 8 9 22 11 10 7 8 8 7 6 6 3 7 6 3 5 4 4 5 5 4 5 4 7 4 7 12 27 50 7 21 59 61
45 41 33 29 29 24 18 16 17 17 15 14 18 15 13 12 12 14 4 14 16 8 3 6 0 2 4 6 2 1 4 5 4 7 7 5 13 7 9 10 63 64 54 44 64 59 68
Wind_Direction_500mb
60 51 44 37 38 35 29 22 14 13 14 11 7 2 358 357 356 348 346 346 351 4 17 1 344 149 126 98 67 39 37 17 9 10 13 16 34 10 14 338 340 35 326 321 306 306 307
60 51 44 39 38 31 23 17 14 14 14 10 4 1 356 355 355 349 345 344 348 17 15 29 84 130 117 77 55 53 42 32 38 39 35 34 23 354 320 336 7 318 304 300 307 316 347
61 52 41 35 28 21 15 12 10 11 10 5 360 357 353 354 356 353 348 348 351 354 18 60 96 107 93 76 55 40 31 31 37 41 36 17 3 348 329 337 334 315 340 328 26 342 344
70 54 41 30 21 14 8 4 3 1 359 356 352 351 348 354 359 360 356 7 31 20 38 64 102 78 76 70 33 25 42 60 38 43 34 16 355 3 360 320 358 25 46 12 323 5 4
59 52 38 24 15 8 3 357 355 354 352 350 351 355 350 358 2 7 3 33 56 53 63 67 72 89 83 56 42 48 33 20 29 18 20 4 11 33 26 32 11 12 346 339 316 41 11
52 44 34 19 11 4 356 354 351 348 349 350 354 357 352 358 1 10 8 45 41 40 79 75 67 82 41 4 41 24 8 28 37 33 70 29 37 60 28 43 282 289 314 281 255 293 345
48 39 25 14 10 8 4 4 360 356 352 354 1 360 355 353 359 9 14 21 41 55 51 61 40 64 30 46 51 42 38 38 33 45 26 17 61 20 299 277 259 263 255 274 259 289 328
40 31 22 19 13 13 12 7 4 2 3 4 3 3 357 354 360 6 15 60 47 15 39 55 56 57 44 37 56 43 33 41 43 44 360 12 104 328 293 26 319 308 300 304 298 339 344
37 32 27 24 20 18 15 13 8 4 1 359 359 358 1 359 8 7 23 38 26 44 72 39 45 38 31 32 37 11 23 15 45 32 12 181 42 12 29 33 12 28 11 323 280 300 252
35 36 31 23 15 10 7 3 1 359 358 357 359 2 6 8 17 4 14 10 15 99 81 335 360 23 4 357 50 23 19 14 10 32 344 256 6 14 23 29 13 303 339 281 313 349 306
27 27 21 11 5 358 354 352 355 357 357 356 357 1 7 15 16 11 355 357 27 109 49 342 360 2 31 54 333 12 20 28 41 326 52 287 10 7 43 9 353 283 324 278 260 230 360
24 13 5 359 355 350 349 350 353 356 354 355 354 357 4 9 10 4 352 351 3 44 77 360 5 7 22 18 21 3 19 31 30 33 11 15 31 35 337 331 9 310 318 288 13 78 279
5 357 355 351 349 348 351 351 352 352 349 349 350 353 358 1 360 360 350 349 33 89 327 337 343 6 81 353 10 20 64 39 38 5 18 339 6 349 27 16 350 24 28 336 336 353 277
344 343 346 348 350 350 350 350 349 348 348 345 347 349 354 4 355 352 350 37 64 64 3 335 5 13 67 12 12 353 54 39 16 40 4 9 325 22 327 124 294 360 122 170 275 267 292
330 333 340 343 347 347 346 342 341 344 348 345 343 345 351 353 357 350 2 52 115 35 283 342 354 57 351 8 24 33 57 89 36 20 56 349 268 307 40 342 34 319 60 156 260 266 275
315 320 328 335 342 343 344 342 337 341 347 346 340 340 360 356 345 352 74 130 129 13 341 5 83 35 6 346 35 29 34 345 14 23 355 336 295 329 317 13 85 126 220 334 346 309 297
302 312 317 329 335 339 340 339 338 338 342 342 336 325 357 342 4 48 95 116 113 42 33 32 87 62 88 12 298 301 31 29 8 342 47 28 171 285 349 259 273 353 316 66 98 120 243
290 302 307 321 333 338 337 339 340 337 339 340 332 8 344 2 42 38 80 62 83 14 33 38 78 78 88 4 350 301 48 78 45 31 18 295 211 271 242 275 242 183 167 109 128 285 228
285 297 303 312 324 330 331 334 340 341 344 344 11 351 3 36 99 53 60 54 65 31 33 26 62 37 20 54 343 9 22 146 36 31 50 335 316 320 327 8 9 56 60 120 125 133 272
269 290 294 302 307 322 326 327 336 342 344 2 7 19 26 57 64 95 104 56 97 40 60 57 69 67 44 21 12 335 332 342 330 309 304 300 210 207 252 253 303 291 278 258 209 266 282
253 268 277 282 294 309 314 320 334 337 343 4 44 85 67 4 23 76 66 38 72 35 50 51 60 79 74 26 327 278 359 318 303 294 312 54 274 280 263 272 283 284 283 280 250 251 249
248 250 258 270 284 298 304 312 321 322 324 58 52 124 88 76 55 49 3 274 124 78 88 355 103 88 100 203 224 280 312 253 232 323 339 310 260 299 284 276 271 275 278 270 272 267 250
232 225 236 246 258 276 285 292 288 275 241 111 116 127 113 105 94 81 248 157 119 78 30 65 72 97 258 253 291 284 273 258 252 243 240 243 246 158 265 302 288 275 257 253 265 221 215
213 214 222 231 249 267 280 304 323 291 235 209 159 147 132 146 88 163 121 85 84 77 348 360 32 121 275 319 307 285 272 275 274 269 242 239 171 223 271 328 277 244 288 248 262 281 271
207 206 209 222 236 244 248 104 111 128 144 156 160 145 130 116 155 129 141 138 131 103 82 327 34 12 335 328 19 360 337 4 40 54 31 202 271 288 294 240 283 300 10 349 331 312 24
197 193 197 207 208 195 163 142 125 120 127 146 154 152 136 132 228 138 153 160 134 88 13 158 24 343 335 54 55 105 281 267 323 345 80 71 349 145 314 300 292 78 335 341 296 258 352
181 178 184 190 187 171 157 150 140 130 133 138 140 143 134 103 140 151 163 159 138 127 146 290 355 340 10 62 64 171 275 301 291 288 337 342 330 231 271 268 272 48 352 326 16 321 326
169 173 172 181 177 166 159 150 150 153 132 127 124 123 122 117 146 163 161 159 152 163 134 164 20 360 42 71 145 267 250 290 286 236 230 211 193 261 307 250 269 342 345 357 310 312 307
165 164 170 167 166 161 151 139 128 121 111 106 108 102 108 109 131 151 174 269 243 212 197 205 284 181 187 85 274 302 266 257 231 278 353 290 195 206 208 244 295 302 292 290 302 296 305
Wind_Speed_850mb
13 14 15 17 17 19 22 26 32 32 29 28 30 33 35 36 38 38 41 42 36 27 19 16 9 8 18 14 11 9 9 7 8 9 12 13 16 11 6 9 15 2 8 13 19 35 26
11 13 14 16 16 18 22 27 33 34 31 31 33 36 38 38 41 40 42 40 30 21 24 15 12 14 11 13 12 9 8 9 8 11 15 16 11 11 4 4 3 11 19 28 18 27 11
10 11 13 15 16 19 23 27 31 33 33 33 37 40 42 41 41 39 41 37 25 13 23 16 18 20 26 16 15 10 9 12 14 15 14 14 13 10 11 9 14 12 10 15 9 16 7
11 12 13 14 17 20 23 27 32 31 33 35 38 41 42 40 40 40 42 26 20 15 15 14 13 10 15 16 15 8 11 10 12 13 13 12 14 8 6 14 12 9 8 11 8 18 11
14 13 14 15 17 20 23 27 30 32 33 36 39 39 43 41 38 42 41 17 29 21 16 13 11 10 10 12 17 19 17 14 10 13 10 11 10 10 9 7 10 14 5 6 16 10 10
17 16 15 16 18 20 22 25 31 34 31 35 36 37 41 41 39 44 41 12 5 35 9 13 17 12 17 17 14 15 16 14 13 12 5 13 11 7 9 12 5 10 9 7 10 12 14
18 17 17 15 16 20 23 25 28 32 33 35 35 37 37 43 37 47 44 4 6 6 46 21 15 11 17 14 21 20 22 13 15 16 9 12 14 7 11 4 8 8 7 12 10 11 16
17 18 20 23 26 27 28 31 35 36 37 36 36 35 33 37 31 44 43 34 27 9 6 24 23 18 22 19 11 22 21 13 13 6 10 13 8 5 10 7 5 6 8 12 15 13 13
17 19 21 22 25 29 33 35 36 35 35 34 34 35 34 31 20 38 45 40 21 9 5 11 17 15 12 16 13 23 27 12 13 9 8 2 2 10 7 7 12 6 6 9 13 12 10
17 18 21 24 26 29 34 35 35 35 35 35 35 35 35 31 14 39 38 37 15 7 8 16 13 12 15 9 9 21 22 15 11 9 10 3 7 10 10 7 7 5 9 9 18 18 9
16 19 23 26 28 31 33 34 34 34 33 33 32 33 33 31 21 38 37 32 11 5 7 10 10 12 17 16 14 27 25 11 6 8 6 7 14 13 12 3 7 8 15 13 13 12 4
15 20 24 27 29 30 31 31 32 32 32 31 31 31 29 26 24 31 32 20 7 10 4 6 13 13 12 25 15 26 21 23 7 7 8 5 11 10 11 4 7 15 11 12 9 2 3
15 19 23 26 27 27 28 31 32 32 32 31 29 28 28 30 28 29 33 11 10 10 9 13 8 12 8 13 14 18 9 17 10 14 13 13 3 2 11 8 12 15 17 11 11 7 8
16 20 22 25 26 27 30 31 32 32 31 30 28 25 24 23 23 25 25 9 9 4 7 7 8 3 10 15 7 16 6 9 13 11 5 7 10 7 11 5 6 4 7 7 11 6 22
16 19 21 25 26 29 32 32 33 30 27 27 26 22 20 20 18 22 9 11 4 2 6 11 4 10 8 9 12 13 9 4 8 12 7 11 9 6 8 8 5 8 5 4 9 10 6
17 19 21 24 28 32 33 33 29 27 25 24 24 18 16 18 20 14 10 10 6 3 7 4 4 7 8 12 10 11 5 10 6 17 5 4 13 5 9 3 6 10 6 5 2 7 10
19 21 24 26 31 34 35 30 25 26 25 22 19 10 15 22 11 13 8 5 8 11 9 9 2 5 4 4 3 3 4 7 12 11 11 5 5 10 4 4 9 7 6 5 2 1 6
22 24 27 27 32 34 32 25 23 24 22 18 12 6 24 13 11 8 5 4 4 10 17 13 8 6 4 6 5 3 4 6 12 13 5 5 3 9 17 15 8 9 7 8 5 13 8
27 30 30 31 30 29 25 24 24 22 20 16 6 8 17 8 7 3 5 8 11 12 11 10 6 9 7 3 7 5 5 11 22 10 5 8 5 11 16 9 8 7 2 5 5 2 31
29 30 32 31 26 22 23 23 22 19 15 11 6 6 16 25 17 9 6 4 6 11 8 10 7 10 9 8 10 6 6 3 34 20 36 17 8 16 21 15 2 15 16 13 12 14 25
38 32 29 25 22 19 18 19 17 14 8 6 7 6 6 5 12 12 8 5 5 6 6 7 7 9 6 5 6 6 2 11 13 24 4 5 8 8 13 16 12 29 39 39 27 37 17
47 38 32 24 18 17 18 18 14 7 2 3 4 6 14 10 6 7 8 2 5 2 3 5 7 4 4 4 8 10 4 4 12 10 6 3 11 6 41 29 25 35 38 39 38 33 26
47 34 26 21 18 17 15 12 8 6 6 1 9 13 7 4 4 6 4 8 6 4 7 3 4 2 3 4 12 26 33 36 38 8 4 8 7 2 12 5 8 14 19 11 8 10 11
49 37 28 24 18 15 10 6 5 3 5 6 14 13 6 4 3 4 6 6 5 4 0 5 5 4 1 20 32 32 36 39 27 31 29 8 2 6 8 5 4 13 11 13 14 21 12
56 42 31 22 16 10 4 1 3 5 7 9 15 8 7 6 7 6 10 9 8 5 4 4 4 4 12 14 7 10 8 12 4 9 12 16 6 7 6 4 13 14 14 15 12 14 15
56 44 31 20 13 11 8 9 10 12 14 10 12 11 9 20 8 11 11 8 6 3 7 2 6 8 9 9 8 4 5 6 8 14 10 9 2 3 10 13 10 2 20 59 14 7 42
49 40 29 19 16 13 14 14 12 12 10 10 12 12 6 12 16 13 4 7 11 8 4 4 5 5 7 5 5 2 6 3 5 4 8 8 9 7 10 8 13 4 49 47 1 11 70
49 37 28 24 21 20 17 15 11 7 7 9 16 14 8 9 22 11 10 7 8 8 7 6 6 3 7 6 3 5 4 4 5 5 4 5 4 7 4 7 12 27 50 7 21 59 61
45 41 33 29 29 24 18 16 17 17 15 14 18 15 13 12 12 14 4 14 16 8 3 6 0 2 4 6 2 1 4 5 4 7 7 5 13 7 9 10 63 64 54 44 64 59 68
Wind_Direction_850mb
60 51 44 37 38 35 29 22 14 13 14 11 7 2 358 357 356 348 346 346 351 4 17 1 344 149 126 98 67 39 37 17 9 10 13 16 34 10 14 338 340 35 326 321 306 306 307
60 51 44 39 38 31 23 17 14 14 14 10 4 1 356 355 355 349 345 344 348 17 15 29 84 130 117 77 55 53 42 32 38 39 35 34 23 354 320 336 7 318 304 300 307 316 347
61 52 41 35 28 21 15 12 10 11 10 5 360 357 353 354 356 353 348 348 351 354 18 60 96 107 93 76 55 40 31 31 37 41 36 17 3 348 329 337 334 315 340 328 26 342 344
70 54 41 30 21 14 8 4 3 1 359 356 352 351 348 354 359 360 356 7 31 20 38 64 102 78 76 70 33 25 42 60 38 43 34 16 355 3 360 320 358 25 46 12 323 5 4
59 52 38 24 15 8 3 357 355 354 352 350 351 355 350 358 2 7 3 33 56 53 63 67 72 89 83 56 42 48 33 20 29 18 20 4 11 33 26 32 11 12 346 339 316 41 11
52 44 34 19 11 4 356 354 351 348 349 350 354 357 352 358 1 10 8 45 41 40 79 75 67 82 41 4 41 24 8 28 37 33 70 29 37 60 28 43 282 289 314 281 255 293 345
48 39 25 14 10 8 4 4 360 356 352 354 1 360 355 353 359 9 14 21 41 55 51 61 40 64 30 46 51 42 38 38 33 45 26 17 61 20 299 277 259 263 255 274 259 289 328
40 31 22 19 13 13 12 7 4 2 3 4 3 3 357 354 360 6 15 60 47 15 39 55 56 57 44 37 56 43 33 41 43 44 360 12 104 328 293 26 319 308 300 304 298 339 344
37 32 27 24 20 18 15 13 8 4 1 359 359 358 1 359 8 7 23 38 26 44 72 39 45 38 31 32 37 11 23 15 45 32 12 181 42 12 29 33 12 28 11 323 280 300 252
35 36 31 23 15 10 7 3 1 359 358 357 359 2 6 8 17 4 14 10 15 99 81 335 360 23 4 357 50 23 19 14 10 32 344 256 6 14 23 29 13 303 339 281 313 349 306
27 27 21 11 5 358 354 352 355 357 357 356 357 1 7 15 16 11 355 357 27 109 49 342 360 2 31 54 333 12 20 28 41 326 52 287 10 7 43 9 353 283 324 278 260 230 360
24 13 5 359 355 350 349 350 353 356 354 355 354 357 4 9 10 4 352 351 3 44 77 360 5 7 22 18 21 3 19 31 30 33 11 15 31 35 337 331 9 310 318 288 13 78 279
5 357 355 351 349 348 351 351 352 352 349 349 350 353 358 1 360 360 350 349 33 89 327 337 343 6 81 353 10 20 64 39 38 5 18 339 6 349 27 16 350 24 28 336 336 353 277
344 343 346 348 350 350 350 350 349 348 348 345 347 349 354 4 355 352 350 37 64 64 3 335 5 13 67 12 12 353 54 39 16 40 4 9 325 22 327 124 294 360 122 170 275 267 292
330 333 340 343 347 347 346 342 341 344 348 345 343 345 351 353 357 350 2 52 115 35 283 342 354 57 351 8 24 33 57 89 36 20 56 349 268 307 40 342 34 319 60 156 260 266 275
315 320 328 335 342 343 344 342 337 341 347 346 340 340 360 356 345 352 74 130 129 13 341 5 83 35 6 346 35 29 34 345 14 23 355 336 295 329 317 13 85 126 220 334 346 309 297
302 312 317 329 335 339 340 339 338 338 342 342 336 325 357 342 4 48 95 116 113 42 33 32 87 62 88 12 298 301 31 29 8 342 47 28 171 285 349 259 273 353 316 66 98 120 243
290 302 307 321 333 338 337 339 340 337 339 340 332 8 344 2 42 38 80 62 83 14 33 38 78 78 88 4 350 301 48 78 45 31 18 295 211 271 242 275 242 183 167 109 128 285 228
285 297 303 312 324 330 331 334 340 341 344 344 11 351 3 36 99 53 60 54 65 31 33 26 62 37 20 54 343 9 22 146 36 31 50 335 316 320 327 8 9 56 60 120 125 133 272
269 290 294 302 307 322 326 327 336 342 344 2 7 19 26 57 64 95 104 56 97 40 60 57 69 67 44 21 12 335 332 342 330 309 304 300 210 207 252 253 303 291 278 258 209 266 282
253 268 277 282 294 309 314 320 334 337 343 4 44 85 67 4 23 76 66 38 72 35 50 51 60 79 74 26 327 278 359 318 303 294 312 54 274 280 263 272 283 284 283 280 250 251 249
248 250 258 270 284 298 304 312 321 322 324 58 52 124 88 76 55 49 3 274 124 78 88 355 103 88 100 203 224 280 312 253 232 323 339 310 260 299 284 276 271 275 278 270 272 267 250
232 225 236 246 258 276 285 292 288 275 241 111 116 127 113 105 94 81 248 157 119 78 30 65 72 97 258 253 291 284 273 258 252 243 240 243 246 158 265 302 288 275 257 253 265 221 215
213 214 222 231 249 267 280 304 323 291 235 209 159 147 132 146 88 163 121 85 84 77 348 360 32 121 275 319 307 285 272 275 274 269 242 239 171 223 271 328 277 244 288 248 262 281 271
207 206 209 222 236 244 248 104 111 128 144 156 160 145 130 116 155 129 141 138 131 103 82 327 34 12 335 328 19 360 337 4 40 54 31 202 271 288 294 240 283 300 10 349 331 312 24
197 193 197 207 208 195 163 142 125 120 127 146 154 152 136 132 228 138 153 160 134 88 13 158 24 343 335 54 55 105 281 267 323 345 80 71 349 145 314 300 292 78 335 341 296 258 352
181 178 184 190 187 171 157 150 140 130 133 138 140 143 134 103 140 151 163 159 138 127 146 290 355 340 10 62 64 171 275 301 291 288 337 342 330 231 271 268 272 48 352 326 16 321 326
169 173 172 181 177 166 159 150 150 153 132 127 124 123 122 117 146 163 161 159 152 163 134 164 20 360 42 71 145 267 250 290 286 236 230 211 193 261 307 250 269 342 345 357 310 312 307
165 164 170 167 166 161 151 139 128 121 111 106 108 102 108 109 131 151 174 269 243 212 197 205 284 181 187 85 274 302 266 257 231 278 353 290 195 206 208 244 295 302 292 290 302 296 305